Regional Weather Roundup
Issued by NWS

Home | Current Version | Previous Version | Text Only | Print | Product List | Glossary On
Versions: 1 2 3 4 5 6 7 8 9 10 11 12 13 14 15 16 17 18 19 20 21 22 23 24 25 26 27 28 29 30 31 32 33 34 35 36 37 38 39 40 41 42 43 44 45 46 47 48 49 50
000
ASUS42 KTBW 250617
RWRFL
FLORIDA REGIONAL WEATHER ROUNDUP
NATIONAL WEATHER SERVICE TAMPA BAY RUSKIN FL
200 AM EDT TUE APR 25 2017

NOTE: "FAIR" INDICATES FEW OR NO CLOUDS BELOW 12,000 FEET WITH NO
SIGNIFICANT WEATHER AND/OR OBSTRUCTIONS TO VISIBILITY.

FLZ001>010-012>015-112-114-115-250700-
PANHANDLE FLORIDA

CITY           SKY/WX    TMP DP  RH WIND       PRES   REMARKS
PENSACOLA      CLEAR     58  51  78 CALM      29.81S
PENSACOLA NAS  CLEAR     51  49  92 CALM      29.81S
MILTON NAS     LGT RAIN  50  50 100 CALM      29.80
CRESTVIEW      PTCLDY    52  50  93 CALM      29.81S
DUKE FIELD     FAIR      52  49  88 CALM      29.79F
VALPARAISO     CLEAR     56  51  82 W8        29.79F
MARY ESTHER    CLEAR     53  49  89 CALM      29.79S
TRI COUNTY     FAIR      58  55  90 CALM      29.78F
PANAMA CITY    FAIR      55  51  86 CALM      29.78F
TYNDALL AFB    CLEAR     58  53  85 NW3       29.79F
APALACHICOLA   CLEAR     53  51  93 CALM      29.78F

STATION/POSITION SKY/WX   TEMP    WIND        PRES    WAVE   SWELL
                          AIR SEA DIR/SP/G            HT/PER HT/PER
                          (F)     (DEG/KT/KT) (MB)    (FT/S) (FT/S)
30.1N   87.6W              68 73  280/  4/  4 1009.1F   1/ 5
29.2N   88.2W              72 74  250/ 12/ 16 1009.3F   2/ 4
28.8N   86.0W              68 73  270/  4/  6 1009.4F   3/ 6   3/ 6
PANAMA CITY BEAC           63 73  300/  7/  9 1009.0F
TOWER C                    67     290/ 12/ 14 1009.3F
28.5N   84.5W              67 72  310/ 10/ 12 1009.2F   4/ 7   3/ 7

$$
FLZ011-016>038-118-127-128-134-139-239-250700-
NORTH FLORIDA

CITY           SKY/WX    TMP DP  RH WIND       PRES   REMARKS
MARIANNA       CLEAR     59  53  80 W6        29.77S
TALLAHASSEE    PTCLDY    51  49  92 CALM      29.77F
PERRY          CLOUDY    60  53  77 W3        29.79S
CROSS CITY     PTCLDY    52  48  87 CALM      29.78F
LAKE CITY      MOCLDY    55  52  88 W6        29.77S
GAINESVILLE    CLEAR     56  49  77 W7        29.77F
WILLISTON      CLEAR     57  52  82 CALM      29.78F
PALATKA        FAIR      55  52  88 W6        29.77S
MAYPORT NAS    PTCLDY    61  52  72 W12G20    29.73F
JACKSONVILLE   MOCLDY    59  52  77 W9        29.73F
JAX NAS        MOCLDY    61  51  70 W8        29.75S
FERNANDINA BEA CLOUDY    63  52  67 W10       29.72S
ST AUGUSTINE   CLEAR     59  50  72 W8        29.75F

STATION/POSITION SKY/WX   TEMP    WIND        PRES    WAVE   SWELL
                          AIR SEA DIR/SP/G            HT/PER HT/PER
                          (F)     (DEG/KT/KT) (MB)    (FT/S) (FT/S)
SHELL POINT      NOT AVBL
KEATON BEACH               67     290/ 10/ 12 1008.0F
CEDAR KEY                  63     360/  4/  6 1008.6F
FERNANDINA                 62 74  280/  8/ 11 1007.6S
30.7N   81.3W                 72                N/A     3/ 9   2/12
MAYPORT                    64 74  280/ 14/ 18 1006.9F
31.4N   80.9W              65 71  270/ 16/ 19 1005.2    3/ 8   3/ 8
ST AUGUSTINE               60 73  260/  7/  9 1008.1F

$$
FLZ040-043>046-052-053-057-058-063-144-250700-
INTERIOR CENTRAL FLORIDA

CITY           SKY/WX    TMP DP  RH WIND       PRES   REMARKS
OCALA          CLEAR     57  46  67 W3        29.78S
THE VILLAGES     N/A     59  54  82 CALM      29.68F
LEESBURG       CLEAR     63  53  70 NW12      29.78S
SANFORD        PTCLDY    64  55  72 W8        29.76F
ORLANDO EXEC   CLOUDY    67  51  56 W10       29.76F
ORLANDO INTL   MOCLDY    65  55  70 W8        29.77F
KISSIMMEE      CLOUDY    64  56  75 W8        29.78F
WINTER HAVEN   MOCLDY    66  50  56 W14       29.79F
LAKELAND       CLOUDY    64  52  63 W8        29.78F
BARTOW         CLOUDY    64  52  63 W10       29.79F
OKEECHOBEE     CLEAR     59  55  88 W5        29.80S

$$
FLZ041-047-054-059-064-141-147-250700-
EAST CENTRAL FLORIDA

CITY           SKY/WX    TMP DP  RH WIND       PRES   REMARKS
DAYTONA BEACH  PTCLDY    59  54  83 W5        29.75F
DELAND         CLEAR     61  54  77 W6        29.76F
JFK SPACE CTR  CLEAR     63  57  81 W6        29.75F
CAPE CANAVERAL CLEAR     65  56  72 W12       29.75S
PATRICK AFB    CLEAR     66  58  74 W13       29.76S
MELBOURNE      CLEAR     63  57  81 W7        29.77S
VERO BEACH     CLOUDY    66  57  72 SW9       29.78S
FT PIERCE      PTCLDY    64  57  78 W7        29.78S

STATION/POSITION SKY/WX   TEMP    WIND        PRES    WAVE   SWELL
                          AIR SEA DIR/SP/G            HT/PER HT/PER
                          (F)     (DEG/KT/KT) (MB)    (FT/S) (FT/S)
28.5N   80.2W              69 76  270/ 17/ 21 1008.3R   5/ 5   3/ 8
28.9N   78.5W              75 77  270/ 17/ 21 1005.5F   6/12   5/12
TRIDENT PIER               66 77  260/  8/ 10 1009.1F
28.4N   80.5W                 76                N/A     2/11   2/11
27.5N   80.2W                 76                N/A     3/13   2/13

$$
FLZ050-056-061-142-242-148-248-149-249-151-251-155-255-
160-260-250700-
WEST CENTRAL FLORIDA

CITY           SKY/WX    TMP DP  RH WIND       PRES   REMARKS
CRYSTAL RIVER  FAIR      55  50  82 CALM      29.78F
INVERNESS      FAIR      54  52  94 CALM      29.79F
BROOKSVILLE    MOCLDY    65  52  62 N6        29.79S
CLEARWATER AIR CLOUDY    64  50  59 W9        29.79F
ST PETE CLEARW CLOUDY    66  50  56 NW12      29.79F
TAMPA INTL     MOCLDY    68  52  56 W13       29.79F
TAMPA EXEC     CLOUDY    68  52  56 W3        29.79F
PLANT CITY     MOCLDY    66  52  59 W10       29.80F
MACDILL AFB    MOCLDY    66  52  60 W8        29.79F
PETER O KNIGHT CLOUDY    70  55  60 NW7       29.80S
ST PETERSBURG  CLOUDY    67  54  63 NW9       29.78F
SARASOTA       CLOUDY    69  53  56 NW12      29.78F
VENICE         CLOUDY    70  59  68 NW16      29.81F

STATION/POSITION SKY/WX   TEMP    WIND        PRES    WAVE   SWELL
                          AIR SEA DIR/SP/G            HT/PER HT/PER
                          (F)     (DEG/KT/KT) (MB)    (FT/S) (FT/S)
27.3N   84.2W                 74                N/A     6/ 7
CLEARWATER BEACH           67 77  310/ 14/ 16 1009.1F
MIDDLE TAMPA BAY           69     330/ 12/ 16 1009.1F
VENICE                     71 76  290/ 20/ 23 1008.7F

$$
FLZ066-069-070-075>078-162-262-165-265-250700-
SOUTHWEST FLORIDA AND KEYS

CITY           SKY/WX    TMP DP  RH WIND       PRES   REMARKS
PUNTA GORDA    CLOUDY    69  57  65 NW8       29.81F
FT MYERS       CLOUDY   N/A N/A N/A W8        29.80F
SOUTHWEST INTL MOCLDY    69  58  67 W3        29.80F
NAPLES         PTCLDY    72  59  63 W14       29.80F
IMMOKALEE      MOCLDY    64  59  82 CALM      29.80F
MARATHON       CLEAR     75  64  68 W13G18    29.82F
KEY WEST NAS   CLEAR    N/A N/A N/A W12       29.83F
KEY WEST INTL  CLEAR     74  60  61 W10       29.83F

STATION/POSITION SKY/WX   TEMP    WIND        PRES    WAVE   SWELL
                          AIR SEA DIR/SP/G            HT/PER HT/PER
                          (F)     (DEG/KT/KT) (MB)    (FT/S) (FT/S)
NAPLES                        76  280/ 15/ 17 1009.2F
26.0N   85.6W              72     300/  8/ 12 1009.6F   4/ 7   3/ 7
DRY TORTUGAS               74     290/ 11/ 14 1010.2F
SAND KEY                   75     290/ 18/ 21 1010.7F
LONG KEY                   75 78  280/ 17/ 19 1009.8F
MOLASSES REEF              74 77  320/ 12/ 16 1009.8F

$$
FLZ067-068-071>074-168-172>174-250700-
SOUTHEAST FLORIDA

CITY           SKY/WX    TMP DP  RH WIND       PRES   REMARKS
W PALM BEACH   CLEAR     66  58  75 W7        29.79F
FT LAUDER-EXEC PTCLDY    70  59  68 W7        29.80F
FT LAUDERDALE  CLEAR     69  61  75 W8        29.80S
POMPANO BEACH  CLEAR     68  61  78 W7        29.80S
PEMBROKE PINES PTCLDY    69  61  75 W7        29.82S
OPA LOCKA      PTCLDY    67  62  84 W8        29.82S
MIAMI          CLEAR     70  62  76 W5        29.82S
WEST KENDALL   CLEAR     64  61  90 W3        29.81F
HOMESTEAD      CLEAR     67  65  91 NW6       29.80F

STATION/POSITION SKY/WX   TEMP    WIND        PRES    WAVE   SWELL
                          AIR SEA DIR/SP/G            HT/PER HT/PER
                          (F)     (DEG/KT/KT) (MB)    (FT/S) (FT/S)
PORT EVERGLADES            71     280/ 10/ 12 1009.2F
VIRGINIA KEY               71 78  250/  6/  9 1008.8S
LAKE WORTH                 68 78  260/  6/  8 1009.8F
FOWEY ROCKS                71 77  290/ 16/ 17 1010.1F
SETTLEMENT POINT           74     270/ 21/ 24 1008.5F

$$




USA.gov is the U.S. government's official web portal to all federal, state and local government web resources and services.